Regional Weather Roundup
Issued by NWS

Home | Current Version | Previous Version | Graphics & Text | Print | Product List | Glossary On
Versions: 1 2 3 4 5 6 7 8 9 10 11 12 13 14 15 16 17 18 19 20 21 22 23 24 25 26 27 28 29 30 31 32 33 34 35 36 37 38 39 40 41 42 43 44 45 46 47 48 49 50
000
ASUS43 KIND 041959
RWRIN

WEATHER ROUNDUP FOR INDIANA
NATIONAL WEATHER SERVICE INDIANAPOLIS IN
400 PM EDT WED MAY 04 2016

NOTE: "FAIR" INDICATES FEW OR NO CLOUDS BELOW 12,000 FEET WITH NO
SIGNIFICANT WEATHER AND/OR OBSTRUCTIONS TO VISIBILITY.

* - STATION DOES NOT REPORT WEATHER SUCH AS PRECIPITATION OR FOG.

+ - STATION NOT QUALITY CONTROLLED BY THE NATIONAL WEATHER SERVICE.
    USE DATA WITH CAUTION...ESPECIALLY DEWPOINT AND RELATIVE
    HUMIDITY OBSERVATIONS.

INZ001>003-010>013-019-020-042100-
NORTHWEST INDIANA

CITY           SKY/WX    TMP DP  RH WIND       PRES   REMARKS
GARY /AIRPORT/ CLOUDY    48  45  87 N14G25    29.81R
RENSSELAER +   CLOUDY    52  41  66 N15G22    29.78R

$$

LMZ046-743>745-042100-
SOUTHERN LAKE MICHIGAN

STATION/POSITION TIME  TEMP    WIND        PRES    WAVE
                       AIR SEA DIR/SP/G            HT
                 (UTC) (F)     (DEG/KT/KT) (MB)    (FT)
BURNS HARBOR     1900   44     360/ 20/ 24 1009.1R
MICHIGAN CITY    1900   43     330/ 25/ 29   N/A

$$

INZ004-005-014>016-021>024-042100-
NORTH CENTRAL INDIANA

CITY           SKY/WX    TMP DP  RH WIND       PRES   REMARKS
ELKHART        CLOUDY    43  39  87 NW14G26   29.71R
GOSHEN         CLOUDY    44  38  79 NW25      29.69R
SOUTH BEND     CLOUDY    43  36  76 NW18G35   29.74R

$$

INZ006>009-017-018-025>027-042100-
NORTHEAST INDIANA

CITY           SKY/WX    TMP DP  RH WIND       PRES   REMARKS
ANGOLA *+      CLOUDY    46  37  71 NW14      29.63R
FORT WAYNE     CLOUDY    48  40  73 NW20G28   29.67R

$$

INZ028-029-035-036-043>045-051>053-042100-
WEST CENTRAL INDIANA

CITY           SKY/WX    TMP DP  RH WIND       PRES   REMARKS
CRAWFORDSVL +  CLOUDY    51  41  67 N15G24    29.76R
GREENCASTLE +  CLOUDY    54  45  71 N12G18    29.75R
LAFAYETTE      PTSUNNY   53  39  59 N17G26    29.76R
TERRE HAUTE    PTSUNNY   58  44  60 N16       29.75S

$$

INZ030>032-037>040-046>048-054>057-064-065-042100-
CENTRAL INDIANA

CITY           SKY/WX    TMP DP  RH WIND       PRES   REMARKS
ANDERSON       PTSUNNY   50  39  66 NW17G29   29.72
INDIANAPOLIS   PTSUNNY   54  40  59 NW18      29.72F
-EAGLE CREEK   CLOUDY    55  40  56 N17G24    29.72F
KOKOMO *+      CLOUDY    50  39  66 NW24      29.73R
SHELBYVILLE    MOSUNNY   57  40  52 NW18G31   29.71R

$$

INZ033-034-041-042-049-050-058-059-042100-
EAST CENTRAL INDIANA

CITY           SKY/WX    TMP DP  RH WIND       PRES   REMARKS
MUNCIE         CLOUDY    52  41  66 W22G28    29.70R

$$

INZ060-061-067>069-081>083-085>088-042100-
SOUTHWEST INDIANA

CITY           SKY/WX    TMP DP  RH WIND       PRES   REMARKS
EVANSVILLE     LGT RAIN  62  42  47 NW8       29.75R
HUNTINGBURG *+ CLOUDY    59  43  55 NW15G29   29.73R

$$

INZ062-063-066-070>080-084-089>092-042100-
SOUTH CENTRAL AND SOUTHEAST INDIANA

CITY           SKY/WX    TMP DP  RH WIND       PRES   REMARKS
BLOOMINGTON    MOSUNNY   59  41  51 N16       29.72R
MADISON *+     CLOUDY    54  48  82 NW7       29.71S
SEYMOUR +      PTSUNNY   61  45  55 NW14G21   29.70R

$$





USA.gov is the U.S. government's official web portal to all federal, state and local government web resources and services.